QPF
0.00 0.00 0.00 0.00 0.00 0.00 0.00 0.00 0.00 0.00 0.00 0.00 0.00 0.00 0.00 0.00 0.00 0.00 0.00 0.00 0.00 0.00 0.00 0.00 0.00 0.00 0.00 0.00 0.00 0.00 0.00 0.00 0.00 0.00 0.00 0.00 0.00 0.00 0.00 0.00 0.00 0.00 0.00 0.00
0.00 0.00 0.00 0.00 0.00 0.00 0.00 0.00 0.00 0.00 0.00 0.00 0.00 0.00 0.00 0.00 0.00 0.00 0.00 0.00 0.00 0.00 0.00 0.00 0.00 0.00 0.00 0.00 0.00 0.00 0.00 0.00 0.00 0.00 0.00 0.00 0.00 0.00 0.00 0.00 0.00 0.00 0.00 0.00
0.00 0.00 0.00 0.00 0.00 0.00 0.00 0.00 0.00 0.00 0.00 0.00 0.00 0.00 0.00 0.00 0.00 0.00 0.00 0.00 0.00 0.00 0.00 0.00 0.00 0.00 0.00 0.00 0.00 0.00 0.00 0.00 0.00 0.00 0.00 0.00 0.00 0.00 0.00 0.00 0.00 0.00 0.00 0.00
0.00 0.00 0.00 0.00 0.00 0.00 0.00 0.00 0.00 0.00 0.00 0.00 0.00 0.00 0.00 0.00 0.00 0.00 0.00 0.00 0.00 0.00 0.00 0.00 0.00 0.00 0.00 0.00 0.00 0.00 0.00 0.00 0.00 0.00 0.00 0.00 0.00 0.00 0.00 0.00 0.00 0.00 0.00 0.00
0.00 0.00 0.00 0.00 0.00 0.00 0.00 0.00 0.00 0.00 0.00 0.00 0.00 0.00 0.00 0.00 0.00 0.00 0.00 0.00 0.00 0.00 0.00 0.00 0.00 0.00 0.00 0.00 0.00 0.00 0.00 0.00 0.00 0.00 0.00 0.00 0.00 0.00 0.00 0.00 0.00 0.00 0.00 0.00
0.00 0.00 0.00 0.00 0.00 0.00 0.00 0.00 0.00 0.00 0.00 0.00 0.00 0.00 0.00 0.00 0.00 0.00 0.00 0.00 0.00 0.00 0.00 0.00 0.00 0.00 0.00 0.00 0.00 0.00 0.00 0.00 0.00 0.00 0.00 0.00 0.00 0.00 0.00 0.00 0.00 0.00 0.00 0.00
0.00 0.00 0.00 0.00 0.00 0.00 0.00 0.00 0.00 0.00 0.00 0.00 0.00 0.00 0.00 0.00 0.00 0.00 0.00 0.00 0.00 0.00 0.00 0.00 0.00 0.00 0.00 0.00 0.00 0.00 0.00 0.00 0.00 0.00 0.00 0.00 0.00 0.00 0.00 0.00 0.00 0.00 0.00 0.00
0.00 0.00 0.00 0.00 0.00 0.00 0.00 0.00 0.00 0.00 0.00 0.00 0.00 0.00 0.00 0.00 0.00 0.00 0.00 0.00 0.00 0.00 0.00 0.00 0.00 0.00 0.00 0.00 0.00 0.00 0.00 0.00 0.00 0.00 0.00 0.00 0.00 0.00 0.00 0.00 0.00 0.00 0.00 0.00
0.00 0.00 0.00 0.00 0.00 0.00 0.00 0.00 0.00 0.00 0.00 0.00 0.00 0.00 0.00 0.00 0.00 0.00 0.00 0.00 0.00 0.00 0.00 0.00 0.00 0.00 0.00 0.00 0.00 0.00 0.00 0.00 0.00 0.00 0.00 0.00 0.00 0.00 0.00 0.00 0.00 0.00 0.00 0.00
0.00 0.00 0.00 0.00 0.00 0.00 0.00 0.00 0.00 0.00 0.00 0.00 0.00 0.00 0.00 0.00 0.00 0.00 0.00 0.00 0.00 0.00 0.00 0.00 0.00 0.00 0.00 0.00 0.00 0.00 0.00 0.00 0.00 0.00 0.00 0.00 0.00 0.00 0.00 0.00 0.00 0.00 0.00 0.00
0.00 0.00 0.00 0.00 0.00 0.00 0.00 0.00 0.00 0.00 0.00 0.00 0.00 0.00 0.00 0.00 0.00 0.00 0.00 0.00 0.00 0.00 0.00 0.00 0.00 0.00 0.00 0.00 0.00 0.00 0.00 0.00 0.00 0.00 0.00 0.00 0.00 0.00 0.00 0.00 0.00 0.00 0.00 0.00
0.00 0.00 0.00 0.00 0.00 0.00 0.00 0.00 0.00 0.00 0.00 0.00 0.00 0.00 0.00 0.00 0.00 0.00 0.00 0.00 0.00 0.00 0.00 0.00 0.00 0.00 0.00 0.00 0.00 0.00 0.00 0.00 0.00 0.00 0.00 0.00 0.00 0.00 0.00 0.00 0.00 0.00 0.00 0.00
0.01 0.00 0.02 0.03 0.04 0.01 0.00 0.00 0.00 0.00 0.00 0.00 0.00 0.00 0.00 0.00 0.00 0.00 0.00 0.00 0.00 0.00 0.00 0.00 0.00 0.00 0.00 0.00 0.00 0.00 0.00 0.00 0.00 0.00 0.00 0.00 0.00 0.00 0.00 0.00 0.00 0.00 0.00 0.00
0.00 0.01 0.00 0.01 0.01 0.01 0.00 0.00 0.00 0.00 0.02 0.00 0.00 0.00 0.00 0.00 0.00 0.00 0.00 0.00 0.00 0.00 0.00 0.00 0.00 0.00 0.00 0.00 0.00 0.00 0.00 0.00 0.00 0.00 0.00 0.00 0.00 0.00 0.00 0.00 0.00 0.00 0.00 0.00
0.00 0.02 0.00 0.00 0.00 0.00 0.00 0.00 0.00 0.00 0.00 0.00 0.00 0.00 0.00 0.00 0.00 0.00 0.00 0.00 0.00 0.00 0.00 0.00 0.00 0.00 0.00 0.00 0.00 0.00 0.00 0.00 0.00 0.00 0.00 0.00 0.00 0.00 0.00 0.00 0.00 0.00 0.00 0.00
0.00 0.02 0.01 0.00 0.00 0.00 0.00 0.00 0.00 0.00 0.00 0.00 0.00 0.00 0.00 0.00 0.00 0.00 0.00 0.00 0.00 0.00 0.00 0.00 0.00 0.00 0.00 0.00 0.00 0.00 0.00 0.00 0.00 0.00 0.00 0.00 0.00 0.00 0.00 0.00 0.00 0.00 0.00 0.00
0.00 0.00 0.02 0.04 0.01 0.01 0.01 0.00 0.00 0.00 0.00 0.00 0.00 0.00 0.00 0.00 0.00 0.00 0.00 0.00 0.00 0.00 0.00 0.00 0.00 0.00 0.00 0.00 0.00 0.00 0.00 0.00 0.00 0.00 0.00 0.00 0.00 0.00 0.00 0.00 0.00 0.00 0.00 0.00
0.00 0.00 0.00 0.00 0.00 0.02 0.00 0.00 0.00 0.00 0.00 0.00 0.00 0.00 0.00 0.00 0.00 0.00 0.00 0.00 0.00 0.00 0.00 0.00 0.00 0.00 0.00 0.00 0.00 0.00 0.00 0.00 0.00 0.00 0.00 0.00 0.00 0.00 0.00 0.00 0.00 0.00 0.00 0.00
0.00 0.00 0.00 0.00 0.00 0.00 0.00 0.00 0.00 0.00 0.00 0.00 0.00 0.00 0.00 0.00 0.00 0.00 0.00 0.00 0.00 0.00 0.00 0.00 0.00 0.00 0.00 0.00 0.00 0.00 0.00 0.00 0.00 0.00 0.00 0.00 0.00 0.00 0.00 0.00 0.00 0.02 0.02 0.02
0.00 0.00 0.00 0.00 0.00 0.00 0.00 0.00 0.00 0.00 0.00 0.00 0.00 0.00 0.00 0.00 0.00 0.00 0.00 0.00 0.00 0.00 0.00 0.00 0.00 0.00 0.00 0.00 0.00 0.00 0.00 0.00 0.00 0.00 0.00 0.00 0.00 0.00 0.00 0.01 0.03 0.04 0.04 0.03
0.00 0.00 0.00 0.00 0.00 0.00 0.00 0.00 0.00 0.00 0.00 0.00 0.00 0.00 0.00 0.00 0.00 0.00 0.00 0.00 0.00 0.00 0.00 0.00 0.00 0.00 0.00 0.00 0.00 0.00 0.00 0.00 0.00 0.00 0.00 0.00 0.00 0.01 0.02 0.04 0.04 0.03 0.02 0.01
0.00 0.00 0.00 0.00 0.00 0.00 0.00 0.00 0.00 0.00 0.00 0.00 0.00 0.00 0.00 0.00 0.00 0.00 0.00 0.00 0.00 0.00 0.00 0.00 0.00 0.00 0.00 0.00 0.00 0.00 0.00 0.00 0.00 0.00 0.00 0.01 0.02 0.02 0.04 0.05 0.04 0.02 0.02 0.02
0.00 0.00 0.00 0.00 0.00 0.00 0.00 0.00 0.00 0.00 0.00 0.00 0.00 0.00 0.00 0.00 0.00 0.00 0.00 0.00 0.00 0.00 0.00 0.00 0.00 0.00 0.00 0.00 0.00 0.00 0.00 0.00 0.00 0.00 0.01 0.02 0.03 0.03 0.04 0.03 0.02 0.02 0.01 0.01
0.00 0.00 0.00 0.00 0.00 0.00 0.00 0.00 0.00 0.00 0.00 0.00 0.00 0.00 0.00 0.00 0.00 0.00 0.00 0.00 0.00 0.00 0.00 0.00 0.00 0.00 0.00 0.00 0.00 0.00 0.00 0.00 0.00 0.00 0.01 0.01 0.01 0.02 0.02 0.01 0.01 0.00 0.00 0.00
0.00 0.00 0.00 0.00 0.00 0.00 0.00 0.00 0.00 0.00 0.00 0.00 0.00 0.00 0.00 0.00 0.00 0.00 0.00 0.00 0.00 0.00 0.00 0.00 0.00 0.00 0.00 0.00 0.00 0.00 0.00 0.00 0.00 0.01 0.01 0.01 0.01 0.01 0.00 0.00 0.00 0.00 0.00 0.00
0.00 0.00 0.00 0.00 0.00 0.00 0.00 0.00 0.00 0.00 0.00 0.00 0.00 0.00 0.00 0.00 0.00 0.00 0.00 0.00 0.00 0.00 0.00 0.00 0.00 0.00 0.00 0.00 0.00 0.00 0.01 0.01 0.01 0.01 0.01 0.01 0.00 0.00 0.00 0.00 0.00 0.00 0.00 0.00
MSLP
1018.33 1018.75 1018.65 1018.94 1019.30 1019.47 1019.94 1020.11 1019.95 1019.44 1019.06 1019.53 1019.61 1019.37 1018.86 1018.39 1018.56 1018.61 1018.90 1019.13 1019.40 1019.91 1020.46 1020.75 1021.02 1021.28 1021.33 1021.27 1021.28 1021.22 1020.95 1020.66 1020.30 1019.92 1019.76 1019.59 1019.70 1019.97 1020.10 1020.34 1020.42 1020.30 1020.19 1019.86
1019.36 1019.12 1019.04 1019.48 1019.66 1019.90 1020.24 1020.25 1020.16 1019.58 1019.46 1019.75 1019.79 1019.61 1018.78 1018.22 1017.82 1017.60 1017.80 1018.35 1019.03 1020.09 1020.78 1021.26 1021.59 1021.84 1021.89 1021.99 1021.91 1021.65 1021.37 1021.11 1020.71 1020.55 1019.94 1019.67 1020.14 1020.69 1020.94 1021.11 1021.14 1021.20 1020.60 1020.83
1019.46 1019.04 1018.94 1019.40 1019.89 1020.17 1020.41 1020.50 1020.38 1020.32 1020.09 1020.20 1020.32 1019.68 1018.69 1017.40 1017.01 1016.91 1017.16 1017.53 1018.37 1019.36 1020.51 1021.39 1021.92 1022.32 1022.41 1022.47 1022.44 1022.24 1022.06 1021.93 1021.19 1020.51 1020.04 1019.96 1020.31 1020.81 1021.33 1021.65 1021.74 1021.79 1021.64 1021.67
1019.69 1019.03 1019.04 1019.44 1019.87 1020.10 1020.49 1020.34 1020.53 1020.97 1021.20 1021.51 1021.23 1020.56 1019.04 1017.67 1017.02 1016.75 1016.84 1017.45 1018.14 1019.25 1020.55 1021.54 1022.10 1022.48 1022.66 1022.77 1022.77 1022.66 1022.59 1022.20 1021.63 1020.99 1020.60 1020.41 1020.73 1021.35 1021.91 1022.18 1022.36 1022.48 1022.35 1022.37
1019.27 1019.16 1019.26 1019.42 1019.42 1019.81 1020.15 1020.33 1020.94 1021.61 1022.15 1022.37 1022.23 1021.92 1018.97 1018.19 1017.17 1016.95 1017.39 1018.13 1018.94 1019.75 1020.55 1021.63 1022.31 1022.77 1023.05 1023.22 1023.34 1023.11 1022.98 1022.66 1022.31 1021.91 1021.44 1021.26 1021.48 1021.88 1022.20 1022.59 1022.98 1023.25 1023.17 1023.14
1019.42 1019.05 1019.06 1018.97 1019.06 1019.47 1020.00 1020.84 1021.77 1022.69 1023.28 1023.23 1022.24 1021.86 1019.38 1018.17 1017.09 1017.23 1017.93 1018.77 1019.64 1020.46 1021.30 1022.08 1022.65 1023.09 1023.43 1023.68 1023.63 1023.38 1023.08 1023.01 1023.09 1022.76 1022.41 1022.35 1022.43 1022.84 1022.93 1023.17 1023.77 1024.05 1023.90 1023.83
1019.67 1019.42 1019.03 1018.82 1019.26 1019.75 1020.10 1021.32 1022.96 1024.05 1024.53 1023.54 1022.59 1022.25 1019.34 1017.60 1016.98 1017.20 1017.95 1019.10 1020.18 1021.02 1021.79 1022.44 1022.90 1023.28 1023.68 1023.86 1023.75 1023.58 1023.48 1023.59 1023.82 1023.62 1023.41 1023.38 1023.31 1023.43 1023.81 1024.02 1024.29 1024.48 1024.46 1024.58
1019.60 1019.89 1019.00 1018.63 1018.51 1018.98 1020.11 1020.91 1022.25 1023.46 1024.52 1023.96 1023.03 1021.38 1018.42 1017.50 1017.34 1017.55 1018.07 1019.48 1020.56 1021.45 1022.03 1022.54 1022.83 1023.21 1023.52 1023.86 1023.92 1023.96 1023.81 1024.45 1024.38 1024.29 1024.25 1024.32 1024.30 1024.37 1024.48 1024.56 1024.69 1024.89 1025.01 1025.10
1019.11 1019.09 1018.65 1018.48 1018.33 1018.48 1020.00 1020.83 1021.76 1023.18 1024.78 1024.35 1022.55 1020.62 1018.22 1017.59 1017.93 1018.57 1019.37 1020.07 1020.93 1021.53 1021.87 1022.34 1022.83 1023.16 1023.46 1023.92 1024.06 1024.12 1024.70 1024.93 1024.99 1024.89 1024.86 1024.99 1024.98 1025.06 1025.26 1025.32 1025.33 1025.35 1025.30 1025.18
1018.10 1018.87 1018.83 1018.74 1018.47 1018.90 1019.08 1020.21 1021.72 1023.04 1024.31 1024.08 1022.34 1020.96 1018.83 1018.08 1018.50 1019.20 1019.94 1020.50 1020.96 1021.27 1021.72 1022.24 1022.69 1023.03 1023.46 1023.78 1024.17 1024.57 1024.76 1024.96 1025.14 1025.27 1025.47 1025.59 1025.75 1025.67 1025.82 1025.71 1025.80 1025.87 1025.84 1025.76
1017.98 1018.24 1019.36 1018.95 1018.68 1018.62 1019.38 1019.79 1020.71 1021.67 1022.77 1022.88 1022.30 1020.50 1018.93 1018.53 1018.33 1018.98 1019.75 1020.31 1020.67 1021.12 1021.56 1022.25 1022.59 1022.82 1023.17 1023.70 1024.04 1024.28 1024.71 1024.95 1025.38 1025.80 1025.98 1026.04 1026.05 1026.11 1026.28 1026.24 1026.27 1026.32 1026.37 1026.36
1017.66 1018.38 1019.04 1018.88 1018.97 1018.94 1018.67 1019.07 1019.82 1020.92 1022.29 1022.45 1021.94 1020.17 1018.93 1018.56 1018.39 1018.85 1019.60 1020.08 1020.47 1020.80 1021.21 1021.78 1022.29 1022.80 1023.18 1023.39 1023.81 1024.20 1024.61 1025.14 1025.58 1025.95 1026.25 1026.46 1026.51 1026.55 1026.71 1026.73 1026.75 1026.72 1026.83 1026.85
1017.22 1018.24 1019.31 1019.68 1019.71 1019.20 1018.98 1019.18 1019.48 1020.04 1020.79 1021.14 1021.39 1020.08 1019.18 1018.72 1018.57 1018.72 1019.24 1019.67 1020.05 1020.43 1021.00 1021.74 1022.13 1022.36 1022.81 1023.25 1023.64 1024.14 1024.70 1025.11 1025.62 1026.02 1026.32 1026.55 1026.77 1026.94 1027.12 1027.22 1027.20 1027.19 1027.26 1027.40
1016.73 1017.99 1018.31 1018.38 1018.21 1018.45 1019.00 1019.06 1019.34 1019.61 1020.10 1020.03 1019.91 1019.84 1019.53 1019.10 1018.90 1019.05 1019.26 1019.53 1020.18 1020.49 1020.75 1021.05 1021.49 1021.78 1022.23 1022.84 1023.40 1023.93 1024.51 1024.99 1025.64 1026.10 1026.33 1026.56 1026.92 1027.23 1027.43 1027.55 1027.69 1027.71 1027.88 1027.99
1017.19 1018.29 1018.73 1018.73 1018.63 1018.84 1018.56 1018.73 1018.87 1018.88 1019.00 1019.08 1019.04 1019.18 1018.81 1018.51 1018.43 1018.65 1018.98 1019.49 1019.91 1020.12 1020.44 1020.75 1021.06 1021.26 1021.55 1022.12 1022.62 1023.35 1024.11 1024.91 1025.46 1025.97 1026.27 1026.58 1026.89 1027.19 1027.52 1027.82 1028.08 1028.19 1028.25 1028.47
1017.52 1018.74 1019.42 1019.77 1019.63 1019.61 1019.24 1018.71 1018.52 1018.35 1018.60 1018.65 1018.83 1018.49 1018.14 1017.83 1017.97 1018.41 1018.59 1019.06 1019.41 1019.62 1019.77 1019.96 1020.36 1020.79 1021.21 1021.67 1022.17 1022.83 1023.50 1024.29 1024.97 1025.64 1026.15 1026.58 1026.90 1027.25 1027.66 1028.01 1028.34 1028.61 1028.83 1029.02
1018.03 1019.14 1020.51 1021.23 1021.15 1020.64 1019.67 1018.74 1018.24 1017.95 1017.82 1018.04 1017.94 1017.20 1017.48 1017.78 1017.73 1017.96 1018.27 1018.55 1018.93 1019.27 1019.48 1019.84 1020.26 1020.59 1020.79 1021.06 1021.39 1022.11 1022.83 1023.77 1024.74 1025.45 1026.07 1026.60 1027.04 1027.49 1027.91 1028.20 1028.47 1028.85 1029.10 1029.52
1018.41 1019.99 1021.51 1023.04 1022.81 1021.44 1018.85 1017.89 1017.41 1017.43 1017.27 1017.18 1016.98 1016.94 1016.90 1016.91 1017.04 1017.45 1017.67 1018.19 1018.60 1018.92 1019.35 1019.96 1020.54 1020.99 1021.22 1021.24 1021.50 1022.05 1022.80 1023.56 1024.45 1025.28 1025.96 1026.57 1027.07 1027.56 1027.83 1028.21 1028.57 1029.06 1029.37 1029.42
1018.16 1019.88 1022.65 1023.97 1023.66 1021.31 1019.29 1018.12 1017.38 1017.22 1016.47 1016.16 1016.47 1016.25 1016.73 1017.14 1017.54 1017.35 1017.26 1017.63 1018.09 1018.79 1019.55 1020.39 1021.14 1021.49 1021.55 1021.76 1022.09 1022.55 1023.26 1023.81 1024.58 1025.34 1025.97 1026.56 1027.06 1027.47 1027.76 1028.06 1028.25 1028.72 1029.12 1029.99
1019.27 1019.86 1021.70 1024.63 1023.65 1021.52 1018.54 1016.64 1016.22 1016.52 1015.80 1015.07 1015.47 1016.09 1016.54 1017.42 1017.89 1016.83 1016.88 1017.50 1018.37 1019.10 1020.01 1020.82 1021.71 1022.12 1022.38 1022.58 1022.74 1023.13 1023.68 1024.15 1024.75 1025.24 1025.82 1026.34 1026.86 1027.24 1027.67 1028.18 1028.44 1028.53 1029.11 1029.81
1020.80 1021.50 1022.30 1023.44 1022.63 1019.84 1017.36 1016.71 1016.39 1016.72 1015.36 1014.18 1014.89 1015.42 1016.40 1017.03 1016.40 1016.48 1016.77 1017.58 1018.26 1019.20 1020.38 1021.47 1021.98 1022.41 1022.63 1022.87 1023.10 1023.64 1024.13 1024.45 1024.66 1025.11 1025.72 1026.30 1026.78 1027.25 1027.68 1027.98 1028.70 1028.68 1029.28 1029.85
1019.80 1021.09 1021.88 1022.07 1021.57 1018.75 1016.03 1016.61 1015.59 1014.09 1014.20 1014.18 1014.61 1014.89 1015.70 1015.86 1016.26 1016.86 1017.17 1017.90 1018.66 1019.58 1020.69 1021.61 1022.32 1022.75 1022.89 1023.25 1023.37 1023.96 1024.12 1024.39 1024.83 1025.30 1025.74 1026.27 1026.76 1027.17 1027.57 1028.04 1028.64 1028.94 1029.28 1029.88
1018.83 1017.78 1018.60 1018.66 1016.70 1015.19 1014.73 1013.64 1013.17 1013.46 1013.82 1014.07 1014.18 1014.61 1015.22 1015.93 1016.41 1016.68 1017.28 1018.03 1018.64 1019.29 1020.33 1021.45 1021.96 1022.59 1022.90 1023.39 1023.30 1023.99 1024.13 1024.45 1024.95 1025.45 1026.05 1026.45 1026.81 1027.22 1027.73 1028.20 1028.82 1028.99 1029.61 1030.14
1017.68 1017.25 1017.28 1017.53 1014.55 1014.66 1014.13 1013.64 1013.62 1013.61 1013.59 1013.54 1013.80 1014.56 1015.32 1016.07 1016.27 1016.62 1017.25 1017.99 1018.74 1019.40 1020.34 1021.25 1021.99 1022.33 1022.85 1023.14 1023.50 1023.58 1024.16 1024.40 1024.90 1025.47 1025.99 1026.44 1026.87 1027.44 1027.94 1028.55 1028.94 1029.41 1030.02 1030.46
1016.39 1016.66 1016.26 1015.88 1014.48 1014.78 1014.25 1013.72 1013.07 1013.22 1013.32 1013.99 1014.48 1014.76 1015.26 1015.95 1016.18 1016.74 1017.30 1017.90 1018.54 1019.39 1020.30 1021.03 1021.55 1021.96 1022.45 1022.88 1023.42 1023.43 1023.82 1024.36 1024.90 1025.44 1025.97 1026.53 1027.03 1027.52 1028.20 1028.78 1029.16 1029.68 1030.04 1030.38
1015.04 1014.59 1014.95 1013.49 1013.19 1013.07 1012.64 1012.64 1012.69 1013.69 1013.85 1013.81 1014.52 1014.79 1015.05 1015.69 1016.00 1016.44 1016.91 1017.23 1018.09 1018.95 1019.76 1020.56 1021.19 1021.74 1022.23 1022.77 1023.12 1023.40 1023.60 1024.10 1024.60 1025.33 1025.96 1026.51 1027.14 1027.88 1028.67 1029.29 1029.70 1029.67 1030.13 1030.15
Thickness
5594 5591 5595 5607 5605 5606 5601 5602 5608 5618 5625 5623 5618 5625 5638 5647 5648 5650 5652 5654 5653 5652 5649 5649 5649 5648 5648 5649 5649 5650 5652 5652 5653 5652 5652 5652 5651 5644 5640 5636 5632 5629 5626 5625
5578 5581 5592 5595 5595 5596 5598 5599 5601 5613 5617 5614 5617 5619 5633 5641 5646 5653 5657 5652 5651 5641 5640 5639 5637 5635 5635 5635 5636 5638 5639 5640 5640 5639 5643 5643 5635 5628 5624 5619 5615 5611 5612 5607
5568 5582 5586 5587 5584 5584 5585 5587 5592 5595 5601 5605 5603 5611 5623 5640 5645 5650 5652 5655 5650 5646 5637 5629 5627 5624 5623 5623 5624 5625 5625 5624 5628 5632 5634 5630 5623 5617 5610 5604 5600 5595 5593 5590
5562 5575 5578 5576 5576 5576 5571 5584 5586 5585 5584 5575 5591 5578 5615 5633 5638 5648 5648 5647 5645 5634 5625 5619 5617 5615 5615 5613 5613 5613 5612 5614 5616 5619 5620 5619 5613 5602 5595 5589 5584 5579 5578 5575
5555 5563 5568 5568 5575 5574 5572 5577 5573 5572 5569 5571 5573 5570 5602 5617 5632 5638 5634 5630 5625 5620 5616 5609 5605 5603 5602 5600 5599 5599 5599 5600 5601 5601 5602 5601 5596 5589 5582 5576 5569 5564 5562 5561
5547 5558 5561 5565 5572 5572 5570 5565 5560 5551 5549 5526 5563 5568 5580 5612 5627 5627 5623 5615 5610 5605 5600 5595 5592 5590 5588 5585 5585 5587 5589 5587 5583 5583 5583 5580 5577 5570 5566 5562 5553 5548 5546 5545
5539 5546 5554 5561 5557 5561 5561 5554 5507 5512 5533 5527 5558 5559 5575 5606 5621 5622 5615 5603 5594 5589 5584 5581 5580 5577 5575 5574 5574 5576 5575 5572 5566 5565 5564 5561 5558 5554 5548 5544 5539 5534 5531 5528
5528 5522 5543 5554 5558 5557 5551 5551 5519 5519 5519 5531 5535 5551 5585 5600 5602 5608 5605 5589 5581 5575 5573 5571 5570 5567 5566 5563 5561 5560 5560 5551 5550 5548 5546 5542 5539 5535 5531 5528 5524 5520 5516 5513
5503 5521 5537 5544 5550 5555 5543 5542 5544 5521 5465 5502 5529 5553 5582 5594 5585 5581 5575 5572 5567 5565 5563 5563 5560 5556 5555 5550 5548 5546 5539 5535 5532 5531 5529 5525 5522 5519 5514 5511 5509 5506 5503 5500
5523 5508 5525 5532 5541 5538 5538 5539 5528 5496 5489 5481 5528 5542 5563 5586 5584 5563 5559 5557 5558 5559 5556 5552 5550 5547 5543 5539 5533 5528 5526 5522 5519 5516 5511 5508 5505 5503 5498 5497 5494 5490 5487 5484
5518 5516 5512 5521 5524 5531 5529 5530 5533 5525 5503 5508 5505 5539 5553 5567 5572 5555 5547 5550 5550 5548 5546 5541 5537 5536 5531 5525 5521 5519 5514 5511 5505 5499 5495 5493 5491 5487 5483 5482 5479 5474 5470 5466
5516 5506 5513 5520 5512 5514 5529 5528 5525 5512 5509 5491 5504 5527 5550 5550 5553 5547 5540 5541 5540 5536 5535 5532 5526 5521 5517 5516 5511 5507 5503 5497 5491 5486 5482 5478 5476 5473 5469 5465 5462 5459 5454 5450
5508 5494 5480 5498 5498 5502 5512 5517 5521 5517 5508 5512 5503 5518 5529 5533 5538 5538 5536 5536 5532 5529 5524 5517 5513 5511 5507 5504 5501 5496 5489 5485 5478 5473 5469 5465 5462 5458 5454 5449 5446 5441 5437 5432
5509 5487 5491 5501 5512 5503 5505 5511 5513 5519 5507 5517 5512 5520 5522 5524 5526 5522 5523 5522 5516 5512 5511 5510 5505 5503 5499 5493 5488 5482 5477 5472 5466 5461 5457 5453 5447 5442 5438 5433 5428 5424 5419 5414
5495 5488 5483 5497 5502 5500 5504 5503 5509 5506 5511 5510 5514 5510 5518 5520 5518 5515 5513 5509 5506 5505 5502 5500 5499 5496 5491 5486 5481 5474 5468 5461 5455 5449 5445 5440 5434 5429 5423 5417 5412 5407 5403 5397
5489 5477 5478 5468 5482 5487 5493 5491 5495 5500 5502 5497 5498 5503 5515 5517 5510 5505 5504 5498 5497 5497 5497 5498 5495 5492 5485 5479 5475 5468 5461 5453 5446 5439 5433 5427 5421 5414 5408 5401 5395 5389 5382 5377
5480 5463 5460 5464 5448 5463 5467 5464 5485 5493 5497 5505 5497 5516 5506 5501 5501 5496 5494 5494 5492 5491 5490 5488 5486 5481 5478 5474 5468 5460 5452 5443 5434 5427 5419 5412 5405 5399 5392 5386 5380 5373 5365 5358
5464 5453 5438 5425 5417 5439 5483 5483 5494 5491 5494 5492 5498 5502 5500 5502 5497 5491 5489 5489 5486 5482 5481 5476 5468 5462 5459 5458 5454 5447 5440 5433 5424 5415 5406 5398 5391 5383 5378 5371 5363 5355 5348 5344
5467 5449 5414 5415 5362 5443 5471 5477 5477 5479 5493 5497 5494 5504 5491 5483 5478 5482 5481 5476 5477 5474 5467 5457 5447 5443 5442 5440 5435 5430 5423 5416 5408 5398 5390 5382 5375 5368 5362 5355 5349 5342 5335 5324
5451 5452 5436 5337 5384 5408 5466 5486 5479 5482 5480 5504 5491 5486 5479 5465 5463 5489 5480 5471 5463 5455 5448 5442 5430 5425 5421 5417 5416 5412 5405 5399 5391 5384 5377 5369 5361 5354 5347 5338 5332 5327 5319 5311
5395 5391 5421 5354 5373 5425 5465 5470 5473 5447 5490 5498 5483 5484 5466 5465 5478 5471 5468 5463 5455 5445 5432 5418 5413 5410 5407 5402 5400 5393 5385 5380 5376 5370 5362 5353 5345 5337 5329 5324 5315 5312 5305 5300
5430 5410 5380 5361 5382 5443 5463 5458 5469 5492 5483 5491 5478 5474 5468 5464 5465 5453 5449 5445 5439 5430 5416 5409 5402 5397 5391 5387 5384 5375 5371 5365 5358 5352 5345 5337 5330 5322 5316 5310 5303 5301 5297 5291
5433 5444 5433 5449 5467 5477 5459 5483 5481 5473 5476 5469 5472 5467 5459 5453 5450 5444 5436 5426 5424 5416 5402 5392 5387 5380 5373 5368 5367 5358 5352 5346 5340 5335 5327 5321 5315 5311 5304 5301 5295 5292 5286 5280
5417 5411 5425 5429 5473 5458 5459 5459 5458 5454 5455 5459 5458 5451 5437 5438 5433 5430 5420 5412 5402 5391 5382 5372 5364 5361 5354 5347 5345 5341 5334 5331 5326 5320 5315 5311 5306 5301 5295 5290 5286 5281 5274 5269
5415 5414 5408 5411 5443 5436 5442 5449 5458 5448 5446 5446 5436 5431 5425 5415 5414 5405 5401 5394 5381 5371 5357 5349 5344 5340 5334 5328 5324 5325 5322 5318 5314 5310 5306 5301 5297 5292 5286 5281 5277 5271 5267 5263
5410 5419 5426 5435 5456 5445 5466 5441 5443 5432 5432 5428 5417 5412 5405 5397 5398 5385 5381 5372 5359 5348 5335 5327 5320 5315 5311 5309 5310 5311 5311 5309 5307 5302 5297 5294 5290 5284 5278 5272 5265 5262 5257 5254